Probability
0 0 0 0 0 0 0 0 0 0 0 0 0 0 0 0 0 0 0 0 0 0 0 0 0 0 0 0 0 0 0 0 0 0 0 0 0 0 0 0 0 0 0 0
0 0 0 0 0 0 0 0 0 0 0 0 0 0 0 0 0 0 0 0 0 0 0 0 0 0 0 0 0 0 0 0 0 0 0 0 0 0 0 0 0 0 0 0
0 0 0 0 0 0 0 0 0 0 0 0 0 0 0 0 0 0 0 0 0 0 0 0 0 0 0 0 0 0 0 0 0 0 0 0 0 0 0 0 0 0 0 0
0 0 0 0 0 0 0 0 0 0 0 0 0 0 0 0 0 0 0 0 0 0 0 0 0 0 0 0 0 0 0 0 0 0 0 0 0 0 0 0 0 0 0 0
0 0 0 0 0 0 0 0 0 0 0 0 0 0 0 0 0 0 0 0 0 0 0 0 0 0 0 0 0 0 0 0 0 0 0 0 0 0 0 0 0 0 0 0
0 0 0 0 0 0 0 0 0 0 0 0 0 0 0 0 0 0 0 0 0 0 0 0 0 0 0 0 0 0 0 0 0 0 0 0 0 0 0 0 0 0 0 0
0 0 0 0 0 0 0 0 0 0 0 0 0 0 0 0 0 0 0 0 0 0 0 0 0 0 0 0 0 0 0 0 0 0 0 0 0 0 0 0 0 0 0 0
0 0 0 0 0 0 0 0 0 0 0 0 0 0 0 0 0 0 0 0 0 0 0 0 0 0 0 0 0 0 0 0 0 0 0 0 0 0 0 0 0 0 0 0
0 0 0 0 0 0 0 0 0 0 0 0 0 0 0 0 0 0 0 0 0 0 0 0 0 0 0 0 0 0 0 0 0 0 0 0 0 0 0 0 0 0 0 0
0 0 0 0 0 0 0 0 0 0 0 0 0 0 0 0 0 0 0 0 0 0 0 0 0 0 0 0 0 0 0 0 0 0 0 0 0 0 0 0 0 0 0 0
0 0 0 0 0 0 0 0 0 0 0 0 0 0 0 0 0 0 0 0 0 0 0 0 0 0 0 0 0 0 0 0 0 0 0 0 0 0 0 0 0 0 0 0
0 0 0 0 0 0 0 0 0 0 0 0 0 0 0 0 0 0 0 0 0 0 0 0 0 0 0 0 0 0 0 0 0 0 0 0 0 0 0 0 0 0 0 0
0 0 0 0 0 0 0 0 0 0 0 0 0 0 0 0 0 0 0 0 0 0 0 0 0 0 0 0 0 0 0 0 0 0 0 0 0 0 0 0 0 0 0 0
0 0 0 0 0 0 0 0 0 0 0 0 0 0 0 0 0 0 0 0 0 0 0 0 0 0 0 0 0 0 0 0 0 0 0 0 0 0 0 0 0 0 0 0
0 0 0 0 0 0 0 0 0 0 0 0 0 0 0 0 0 0 0 0 0 0 0 0 0 0 0 0 0 0 0 0 0 0 0 0 0 0 0 0 0 0 0 0
0 0 0 0 0 0 0 0 0 0 0 0 0 0 0 0 0 0 0 0 0 0 0 0 0 0 0 0 0 0 0 0 0 0 0 0 0 0 0 0 0 0 0 0
0 0 0 0 0 0 0 0 0 0 0 0 0 0 0 0 0 0 0 0 0 0 0 0 0 0 0 0 0 0 0 0 0 0 0 0 0 0 0 0 0 0 0 0
0 0 0 0 0 0 0 0 0 0 0 0 0 0 0 0 0 0 0 0 0 0 0 0 0 0 0 0 0 0 0 0 0 0 0 0 0 0 0 0 0 0 0 0
0 0 0 0 0 0 0 0 0 0 0 0 0 0 0 0 0 0 0 0 0 0 0 0 0 0 0 0 0 0 0 0 0 0 0 0 0 0 0 0 0 0 0 0
0 0 0 0 0 0 0 0 0 0 0 0 0 0 0 0 0 0 0 0 0 0 0 0 0 0 0 0 0 0 0 0 0 0 0 0 0 0 0 0 0 0 0 0
0 0 0 0 0 0 0 0 0 0 0 0 0 0 0 0 0 0 0 0 0 0 0 0 0 0 0 0 0 0 0 0 0 0 0 0 0 0 0 0 0 0 0 0
0 0 0 0 0 0 0 0 0 0 0 0 0 0 0 0 0 0 0 0 0 0 0 0 0 0 0 0 0 0 0 0 0 0 0 0 0 0 0 0 0 0 0 0
0 0 0 0 0 0 0 0 0 0 0 0 0 0 0 0 0 0 0 0 0 0 0 0 0 0 0 0 0 0 0 0 0 0 0 0 0 0 0 0 0 0 0 0
0 0 0 0 0 0 0 0 0 0 0 0 0 0 0 0 0 0 0 0 0 0 0 0 0 0 0 0 0 0 0 0 0 0 0 0 0 0 0 0 0 0 0 0
0 0 0 0 0 0 0 0 0 0 0 0 0 0 0 0 0 0 0 0 0 0 0 0 0 0 0 0 0 0 0 0 0 0 0 0 0 0 0 0 0 0 0 0
0 0 0 0 0 0 0 0 0 0 0 0 0 0 0 0 0 0 0 0 0 0 0 0 0 0 0 0 0 0 0 0 0 0 0 0 0 0 0 0 0 0 0 0
0 0 0 0 0 0 0 0 0 0 0 0 0 0 0 0 0 0 0 0 0 0 0 0 0 0 0 0 0 0 0 0 0 0 0 0 0 0 0 0 0 0 0 0
Wind_Speed
3 5 4 4 4 6 6 9 8 8 9 9 9 9 9 8 7 6 5 4 4 3 3 4 5 5 5 5 5 4 4 5 6 6 6 6 6 7 7 7 8 7 7 8
5 7 7 6 3 4 5 5 6 8 5 7 6 5 5 6 6 6 5 4 3 3 3 4 5 5 4 5 5 4 5 6 6 6 6 6 6 7 7 7 7 7 7 8
4 7 6 5 3 3 4 4 8 7 7 6 5 6 6 6 6 6 5 4 4 4 4 5 5 4 4 4 4 4 5 6 5 5 6 7 7 7 8 8 7 8 8 8
1 5 3 9 5 5 7 3 6 7 7 7 7 6 5 7 7 7 6 5 4 4 4 4 4 3 3 3 4 5 5 6 5 6 7 7 7 8 8 7 7 8 9 9
3 1 6 7 4 4 7 2 4 8 8 7 6 3 2 6 7 7 6 5 5 4 4 3 4 4 3 4 4 5 6 6 6 6 7 8 8 9 8 8 8 8 8 9
4 3 5 8 4 5 10 1 4 7 8 8 7 2 6 7 6 7 6 4 4 3 2 3 4 3 3 4 5 6 6 6 6 6 7 8 9 9 8 7 8 8 8 8
5 5 8 7 4 4 3 8 8 9 9 8 8 8 7 7 7 7 6 5 4 3 2 4 4 3 3 5 6 6 6 6 6 7 7 8 8 7 8 8 8 8 8 8
3 3 7 7 3 6 10 6 8 9 9 9 9 7 7 8 8 7 6 5 4 2 3 4 4 3 4 6 6 6 5 6 7 7 8 8 8 9 8 8 8 8 7 7
7 9 10 7 9 9 8 8 9 10 9 10 9 8 9 8 8 7 6 5 4 3 3 4 4 3 5 6 5 5 5 7 7 8 7 7 7 9 8 7 5 6 5 6
3 8 8 8 7 5 8 10 11 11 10 11 10 10 9 8 7 6 5 5 4 3 3 4 5 4 5 5 4 4 6 7 7 8 8 8 6 6 6 6 6 6 6 6
5 8 6 5 6 8 8 8 9 9 10 12 12 10 10 9 8 7 6 5 4 4 4 5 5 5 5 4 3 4 6 6 7 7 7 8 7 7 7 7 7 7 6 5
7 9 6 8 8 7 7 8 10 11 9 9 11 11 10 9 8 8 7 5 4 4 5 5 5 5 5 4 3 4 5 6 6 6 6 6 7 9 11 10 12 12 11 9
9 9 8 8 6 6 7 9 10 11 12 11 10 10 10 8 8 7 6 6 6 6 5 5 4 5 5 4 4 4 5 6 6 6 6 7 7 7 9 10 10 9 10 11
7 4 3 3 5 5 5 6 7 8 10 11 10 9 9 8 7 8 7 7 6 5 5 4 4 5 5 4 4 5 6 7 7 6 6 7 7 7 7 7 7 6 6 8
5 2 2 2 4 4 3 1 1 4 7 8 8 9 10 10 9 8 7 6 5 5 5 5 5 6 4 3 4 5 5 5 5 6 6 7 7 7 6 6 5 5 5 5
6 9 10 10 10 9 8 6 3 3 6 9 9 10 10 10 9 8 7 7 6 5 6 5 6 5 3 3 4 4 5 9 9 6 6 7 6 6 6 5 5 5 5 5
16 15 13 13 13 13 12 10 8 6 3 5 9 9 9 8 7 7 7 7 8 7 7 6 5 4 3 4 3 3 4 6 11 7 6 6 6 6 6 5 5 5 5 5
12 11 11 11 11 13 14 15 14 13 8 3 2 6 8 9 10 9 9 8 7 6 5 5 5 4 3 3 3 3 4 4 5 6 6 6 7 6 6 5 5 6 5 5
14 14 14 14 12 11 11 12 13 12 11 6 1 3 6 8 9 9 8 7 7 6 6 6 7 5 3 3 3 3 4 5 5 5 5 7 7 6 5 5 5 5 5 4
13 13 13 13 13 12 12 12 12 11 10 8 6 4 5 7 8 8 8 8 8 6 7 7 6 4 3 3 3 3 4 4 4 5 5 5 6 6 6 5 5 5 4 4
11 12 12 12 11 11 10 10 10 10 10 9 8 8 9 10 9 8 7 7 7 6 7 8 5 4 3 2 3 2 3 3 3 4 5 5 6 6 6 6 5 4 4 4
8 9 10 10 10 10 10 9 10 10 10 10 10 9 9 9 9 8 8 8 6 9 6 5 4 5 3 1 1 2 2 3 3 4 4 5 5 6 6 6 5 5 5 4
7 8 9 10 10 10 10 10 10 9 9 9 9 9 9 8 6 7 8 6 5 10 7 5 7 7 5 1 0 0 1 3 3 4 4 5 5 6 6 7 5 5 5 5
9 9 10 10 9 8 9 9 8 6 7 7 7 7 7 7 7 6 5 5 9 10 6 7 10 8 4 2 1 1 1 2 3 4 4 5 5 6 6 6 6 5 5 6
10 10 10 9 8 7 7 7 6 6 7 6 7 7 6 5 6 6 2 4 9 9 5 7 9 7 3 3 2 2 2 2 4 4 4 5 6 6 6 6 6 5 5 5
9 8 8 7 6 5 4 4 4 5 5 5 6 6 6 6 6 3 1 4 8 8 5 4 4 4 3 4 4 3 2 3 4 4 5 5 6 6 6 7 8 6 6 6
7 6 5 5 5 5 4 4 4 5 5 4 5 6 6 6 5 3 1 3 5 5 5 5 4 5 5 5 4 4 3 4 4 5 5 5 5 6 7 7 6 6 6 7
Wind_Direction
266 293 330 300 211 170 154 168 164 186 178 201 196 191 194 195 187 173 178 186 194 212 237 254 264 266 262 260 264 264 267 271 270 273 276 277 278 278 276 272 273 265 262 259
332 322 329 316 278 173 159 152 138 136 183 210 199 188 189 182 163 162 177 184 187 206 238 261 268 269 264 266 269 269 272 275 277 283 286 284 283 282 281 278 275 272 266 262
297 315 354 316 256 152 142 154 151 167 191 180 174 184 180 168 161 173 185 191 206 232 246 258 261 256 257 262 272 282 283 284 286 288 289 288 291 294 286 282 278 276 270 264
229 9 314 260 259 133 117 96 132 136 156 169 174 175 178 177 174 185 192 202 227 241 251 257 255 255 257 272 288 292 291 290 291 293 293 292 290 288 285 280 277 275 274 270
140 213 275 290 282 149 121 66 145 141 158 163 149 112 258 213 189 190 198 204 216 225 230 247 262 256 272 293 297 297 293 290 291 294 296 297 295 292 288 285 283 278 274 273
160 189 241 254 257 127 98 123 212 161 163 162 142 131 255 226 196 193 197 201 208 221 232 267 269 262 281 293 296 291 285 285 290 293 295 295 293 290 288 284 281 282 281 277
198 220 253 244 215 109 128 229 208 179 175 169 176 199 213 191 189 192 192 195 188 197 243 263 267 262 280 289 284 277 282 291 296 296 294 291 288 288 290 290 288 284 283 283
181 206 258 242 191 178 213 204 185 183 182 180 193 198 184 178 184 185 185 189 186 203 254 268 267 255 275 279 274 282 291 299 299 296 297 306 298 296 293 289 289 288 286 290
186 214 234 221 209 211 178 178 191 188 189 175 176 183 181 182 183 186 187 196 201 209 253 276 270 247 263 268 276 291 302 302 299 300 297 294 293 296 298 292 285 285 284 284
260 265 254 244 240 219 190 191 194 187 181 174 176 181 178 177 183 188 193 199 202 211 253 273 269 258 251 263 275 291 299 299 298 301 303 303 296 290 289 288 287 285 281 279
288 285 303 287 243 225 213 201 193 188 183 181 173 176 176 180 186 190 193 199 195 208 237 256 262 265 263 262 269 290 295 294 297 296 298 302 299 290 286 276 265 266 268 262
243 247 224 244 247 228 206 205 198 188 189 187 176 176 175 180 184 183 188 189 195 215 233 251 259 265 262 252 256 283 296 298 297 300 301 300 302 306 297 284 284 273 256 249
236 241 219 237 249 229 212 213 202 190 186 187 185 175 171 176 181 178 181 185 198 214 227 241 253 257 257 250 258 275 283 289 294 296 299 301 300 300 306 310 304 290 274 265
260 244 258 280 272 258 232 216 198 193 193 184 178 172 169 166 168 174 184 195 197 203 219 230 239 254 253 248 268 282 285 291 295 291 295 297 295 294 290 292 302 304 291 275
284 249 232 307 346 337 317 299 165 201 196 189 179 173 170 169 174 183 186 186 184 197 219 230 247 257 248 253 275 285 289 289 291 292 293 293 293 294 293 290 289 292 299 299
20 29 29 30 23 14 12 7 350 265 214 198 190 185 179 173 172 174 178 176 177 207 227 236 243 240 236 260 279 285 286 301 309 300 298 300 300 299 298 294 293 296 297 291
46 33 25 24 20 18 15 8 356 334 280 215 203 185 164 156 160 176 189 194 194 205 216 220 220 218 241 259 264 274 287 301 311 308 297 298 299 299 296 294 293 293 291 284
53 48 41 33 25 19 14 11 6 359 346 309 183 158 161 168 182 194 199 199 202 214 222 204 191 207 244 252 249 270 283 288 294 297 301 304 305 302 299 299 301 298 296 298
38 34 30 25 19 15 9 4 0 358 355 358 6 195 197 197 199 200 196 195 205 220 222 194 192 204 228 231 248 276 285 292 297 300 303 310 314 313 312 309 305 305 304 304
26 21 17 11 6 4 359 353 350 350 348 342 323 282 248 234 221 209 200 209 214 209 190 178 182 194 204 230 287 284 287 291 300 307 312 315 315 315 317 315 311 313 313 305
12 6 0 353 346 344 342 338 334 328 324 317 298 276 261 252 237 217 207 228 234 198 173 170 167 173 186 240 298 286 289 302 314 314 315 317 317 318 320 320 319 317 316 310
351 342 334 329 325 322 319 317 313 310 309 306 299 293 288 276 260 243 229 226 211 175 163 156 158 175 184 218 265 285 304 325 326 320 318 320 321 320 320 321 319 318 316 311
322 314 310 306 303 300 304 306 306 306 306 306 307 305 297 286 270 248 251 237 182 170 159 158 169 176 174 165 196 305 343 346 336 327 323 321 320 320 320 321 318 317 319 323
312 306 301 297 300 305 305 304 308 311 311 310 312 316 317 315 311 286 262 198 165 159 157 166 171 174 160 134 119 83 16 353 341 332 327 325 327 329 326 326 327 331 335 339
303 302 300 302 306 301 295 304 317 322 327 325 322 327 327 320 310 305 279 160 157 149 148 171 174 164 139 114 101 81 42 11 356 345 342 340 338 336 336 340 343 346 351 352
296 298 297 294 291 290 297 309 315 313 317 321 321 320 324 325 323 320 204 158 154 150 149 152 152 136 112 106 97 79 53 22 6 356 351 348 342 343 342 348 355 2 2 2
295 301 305 311 310 311 314 314 313 310 310 312 310 310 313 317 319 310 216 157 150 143 133 125 117 109 102 96 86 67 47 29 13 0 355 354 352 348 347 350 0 6 7 7